PHKAY EN08-ENGS

Flight info

Callsign PHKAY
Flight time N/A
Altitude 4500
Route VFR
Aircraft BE36/L-VGDW/C

Departure

Time N/A
Airport EN08

Arrival

Time 2026-04-29 18:54
Airport Snåsa Airfield Grønøra (ENGS)
Time Latitude Longitude Altitude Speed Heading
2026-04-29 18:53 64.18273 12.17160 91 ft 0 kts 317°
2026-04-29 18:55 64.18272 12.17024 87 ft 33 kts 234°
2026-04-29 18:55 64.18174 12.16744 82 ft 3 kts 287°
2026-04-29 18:55 64.18184 12.16746 82 ft 0 kts 50°
2026-04-29 18:56 64.18198 12.16780 82 ft 19 kts 45°
2026-04-29 18:56 64.18435 12.17368 89 ft 77 kts 49°
2026-04-29 18:56 64.18703 12.18485 334 ft 87 kts 73°
2026-04-29 18:56 64.18735 12.19959 583 ft 91 kts 104°
2026-04-29 18:57 64.18434 12.21235 843 ft 95 kts 129°
2026-04-29 18:57 64.18002 12.22359 1209 ft 88 kts 133°
2026-04-29 18:57 64.17577 12.23347 1588 ft 89 kts 136°
2026-04-29 18:57 64.17091 12.24233 1966 ft 89 kts 149°
2026-04-29 18:58 64.16476 12.24611 2306 ft 94 kts 162°
2026-04-29 18:58 64.15790 12.25164 2489 ft 116 kts 163°
2026-04-29 18:58 64.14974 12.25701 2849 ft 119 kts 163°
2026-04-29 18:58 64.14128 12.26277 3080 ft 134 kts 163°
2026-04-29 18:59 64.13149 12.26890 3106 ft 156 kts 172°
2026-04-29 18:59 64.12003 12.26822 3116 ft 168 kts 183°
2026-04-29 18:59 64.10786 12.26640 3112 ft 172 kts 184°
2026-04-29 18:59 64.09545 12.26661 3102 ft 175 kts 167°
2026-04-29 19:00 64.08352 12.27423 3110 ft 176 kts 163°
2026-04-29 19:00 64.07146 12.28313 3107 ft 177 kts 156°
2026-04-29 19:00 64.06016 12.29521 3109 ft 177 kts 154°
2026-04-29 19:00 64.04914 12.30846 3104 ft 177 kts 144°
2026-04-29 19:01 64.03959 12.32641 3109 ft 177 kts 140°
2026-04-29 19:01 64.03076 12.34637 3094 ft 178 kts 120°
2026-04-29 19:01 64.02526 12.37211 3109 ft 177 kts 115°
2026-04-29 19:01 64.02008 12.39763 3109 ft 177 kts 114°
2026-04-29 19:02 64.01636 12.42431 3093 ft 178 kts 89°
2026-04-29 19:02 64.01874 12.44214 3098 ft 177 kts 58°
2026-04-29 19:02 64.03178 12.46384 3099 ft 177 kts 11°
2026-04-29 19:02 64.04414 12.46397 3095 ft 178 kts 345°
2026-04-29 19:03 64.05547 12.45360 3213 ft 172 kts 336°
2026-04-29 19:03 64.06655 12.44252 3337 ft 168 kts 335°
2026-04-29 19:03 64.07722 12.43174 3461 ft 166 kts 335°
2026-04-29 19:03 64.08788 12.42096 3586 ft 165 kts 335°
2026-04-29 19:04 64.09851 12.41020 3712 ft 164 kts 335°
2026-04-29 19:04 64.10889 12.39968 3836 ft 164 kts 335°
2026-04-29 19:04 64.11941 12.38903 3962 ft 164 kts 335°
2026-04-29 19:04 64.12991 12.37837 4078 ft 165 kts 335°
2026-04-29 19:05 64.14062 12.36752 4106 ft 170 kts 335°
2026-04-29 19:05 64.15182 12.35614 4106 ft 174 kts 335°
2026-04-29 19:05 64.16328 12.34449 3979 ft 182 kts 335°
2026-04-29 19:05 64.17501 12.33260 3738 ft 181 kts 336°
2026-04-29 19:06 64.18639 12.32098 3481 ft 174 kts 335°
2026-04-29 19:06 64.19720 12.30996 3151 ft 167 kts 335°
2026-04-29 19:06 64.21713 12.28958 2376 ft 144 kts 335°
2026-04-29 19:07 64.22508 12.27784 2060 ft 129 kts 306°
2026-04-29 19:07 64.22643 12.27188 2027 ft 120 kts 289°
2026-04-29 19:07 64.22426 12.24664 2000 ft 91 kts 238°
2026-04-29 19:07 64.21946 12.23494 1953 ft 110 kts 223°
2026-04-29 19:08 64.21353 12.22404 1699 ft 107 kts 215°
2026-04-29 19:08 64.20750 12.21423 1446 ft 105 kts 215°
2026-04-29 19:08 64.20113 12.20437 963 ft 122 kts 206°
2026-04-29 19:08 64.19427 12.19598 625 ft 99 kts 217°
2026-04-29 19:09 64.18965 12.18637 411 ft 82 kts 224°
2026-04-29 19:09 64.18612 12.17782 190 ft 72 kts 223°
2026-04-29 19:09 64.18299 12.17025 85 ft 49 kts 226°
2026-04-29 19:09 64.18179 12.16719 82 ft 4 kts 203°
2026-04-29 19:10 64.18179 12.16738 82 ft 0 kts 46°
2026-04-29 19:10 64.18240 12.16886 85 ft 16 kts 49°
2026-04-29 19:10 64.18296 12.17025 85 ft 4 kts 46°
2026-04-29 19:10 64.18304 12.17121 88 ft 8 kts 78°
2026-04-29 19:11 64.18278 12.17181 91 ft 1 kts 234°
2026-04-29 19:11 64.18278 12.17180 91 ft 0 kts 234°